Track STARLINK-1709 now! 10-day predictions STARLINK-1709 is classified as:
1 46561U 20070AF 21016.91667824 -.00021957 00000-0 -14593-2 0 9994 2 46561 53.0563 311.2364 0002047 70.7045 140.1243 15.06408328 1757